Giovanni Lazzaro

C.U.S. PADOVA
20-07-1992


Informazioni sul tesseramento aggiornate al 2019


Condividi con
Seguici su:


400 metri

Anno Data Tipo Cr. Cat. Piazz. Prestaz. Vento Città  
201823/05PESM2 se- 8 54.97Treviso
 

600 METRI

Anno Data Tipo Cr. Cat. Piazz. Prestaz. Vento Città  
200724/07PECM10 se- 1 1:32.65Trento
200630/08PMCM4 se- 1 1:38.3Voltabarozzo
 

800 metri

Anno Data Tipo Cr. Cat. Piazz. Prestaz. Vento Città  
201013/06PEJM6 se- 2 1:58.02Padova
201601/06PESM6 se- 1 1:58.53Treviso
201016/05PEJM2 se- 2 1:58.90Marcon
201731/05PESM6 se- 1 1:58.94Treviso
201619/07PESM12 se- 3 1:59.19Trento
201615/06PESM4 se- 1 1:59.48Conegliano Veneto
201925/04PESM2 se- 2 1:59.56Padova
201625/06PESM7 se- 1 1:59.62San Giovanni Lupatoto
201725/04PESM6 se- 1 1:59.64Padova
201825/04PESM7 se- 1 2:00.01Piombino Dese
201912/05PESM8 se- 2 2:00.08San Biagio Di Callalta
201827/05PESM4 se- 3 2:00.08Bussolengo
201721/05PESM10 se- 3 2:00.29San Biagio Di Callalta
201312/05PEPM2 se- 6 2:00.61Marcon
200904/06PEAM3 se- 2 2:00.66Piombino Dese
200905/07PEAM5 se- 2 2:00.84Bovolone
201725/06PESM6 se- 2 2:00.89Arzignano
201608/05PESM3 se- 4 2:01.22Vicenza
200912/07PEAM4 se- 2 2:02.47Mestre
200825/05PEAM6 se- 1 2:03.13Abano Terme
200820/06PEAM4 se- 1 2:03.71Abano Terme
200903/05PEAM4 se- 2 2:03.75Mestre
200928/07PEAM8 se- 4 2:03.96Trento
201625/04PESM1 se- 3 2:04.07Padova
200920/09PEAM1 se- 2 2:04.87Mogliano Veneto
201507/06PESM1 se- 5 2:04.92Rovigo
200924/01IEAM2 se- 2 2:05.11Padova
200804/05PEAM6 se- 1 2:05.81Vittorio Veneto
201527/05PESM4 se- 6 2:06.81Treviso
 

1000 METRI

Anno Data Tipo Cr. Cat. Piazz. Prestaz. Vento Città  
201912/07PESM6 se-39 2:35.52Monaco Montecarlo
200729/09PECM6 se- 1 2:42.62Mogliano Veneto
200702/06PECM4 se- 1 2:46.10Verona
200706/10PECM3 su- 1 2:46.83Mestre
200731/07PECM10 se- 1 2:47.29Trento
200931/01IEAM7 se- 1 2:47.67Padova
200715/09PMCM1 se- 1 2:47.7Piombino Dese
200722/06PECM4 se- 1 2:48.24Abano Terme
200715/04PMCM1 se- 1 2:50.2Padova
200712/05PMCM3 su- 1 2:51.8Montebelluna
200717/08PECM5 su- 1 2:58.11Cortina
200606/05PMCM2 se- 1 2:58.7Padova
200623/09PMCM3 se- 1 2:59.0Arcella
200623/06PMCM3 se- 2 3:00.2Abano Terme
200610/09PECM3 se- 1 3:00.46Rossano Veneto
200625/04PECM6 su- 1 3:01.57Conegliano
200610/06PMCM3 se- 1 3:01.7Abano Terme
200522/05PMRM2 su- 1 3:24.9Padova
200524/06PMRM6 su- 1 3:26.7Abano Terme
200523/04PMRM3 se- 1 3:28.0Padova
200531/08PMRM3 su- 1 3:28.6Padova Voltabarozzo
200507/05PMRM2 su- 1 3:31.0Padova Voltabarozzo
 

1500 metri

Anno Data Tipo Cr. Cat. Piazz. Prestaz. Vento Città  
201229/06PEPM3 se- 3 4:03.37Ferrara
201018/07PEJM7 se- 1 4:05.80Rovigo
201027/07PEJM11 su- 2 4:06.40Trento
201018/04PEJM10 se- 1 4:06.55Treviso
201014/07PEJM6 se- 2 4:07.20Conegliano
200904/07PEAM8 se- 1 4:07.30Bovolone
201206/05PEPM9 se- 1 4:08.17Marcon
201025/04PEJM4 su- 1 4:08.72Conegliano
201204/07PEPM1 se- 2 4:08.90Quinto Di Treviso
201604/06PESM2 se- 2 4:09.45Bovolone
201117/09PEJM5 su- 1 4:09.99Bassano Del Grappa
200916/05PEAM4 se- 2 4:10.53Vicenza
200820/09PEAM4 su- 1 4:11.91Bovolone
200915/07PEAM5 se- 1 4:12.64Conegliano
201720/05PESM12 se- 2 4:13.01San Biagio Di Callalta
200926/06PEAM2 su- 1 4:13.46Abano Terme
200807/09PEAM6 se- 2 4:13.54Treviso
201110/09PEJM1 se- 2 4:14.53Vicenza
201607/05PESM1 se- 4 4:15.11Vicenza
200824/05PEAM3 su- 1 4:15.67Abano Terme
201929/06PESM1 se- 2 4:17.08Murano
201706/05PESM17 se- 1 4:17.08Bussolengo
200925/04PEAM3 su- 1 4:17.22Conegliano
200803/10PEAM12 se- 1 4:17.30Rieti
200803/05PEAM5 su- 1 4:18.64Vittorio Veneto
200823/08PEAM4 se- 2 4:21.15Cortina
200801/05PEAM5 se- 2 4:23.17Padova
200812/04PEAM4 su- 1 4:23.88Vicenza
200828/06PEAM12 se- 3 4:25.55Villafranca Di Verona
 

2000 METRI

Anno Data Tipo Cr. Cat. Piazz. Prestaz. Vento Città  
200730/09PECM5 su- 1 6:00.16Mogliano Veneto
200707/08PECM8 su- 1 6:09.80Trento
200703/06PECM4 se- 1 6:12.28Verona
200722/09PMCM1 se- 1 6:13.4Borgoricco
200713/05PMCM6 su- 1 6:15.0Montebelluna
200701/09PMCM1 se- 1 6:16.8Padova
200708/09PECM5 su- 1 6:18.89Majano
200719/05PMCM1 se- 1 6:22.9Padova
200611/06PMCM4 su- 1 6:29.1Abano Terme
200630/09PMCM1 su- 1 6:37.4Padova
200620/05PMCM1 su- 1 6:51.0Padova
 

3000 metri

Anno Data Tipo Cr. Cat. Piazz. Prestaz. Vento Città  
201128/05PEJM11 se- 1 8:57.08Noale
201001/05PEJM5 su- 1 8:59.93Voltabarozzo
201817/07PESM1 se- 4 9:10.00Trento
201211/05PEPM7 su- 1 9:17.16Mogliano Veneto
200821/09PEAM3 su- 1 9:26.93Bovolone
200804/06PEAM7 se- 1 9:29.86San Vito Al Tagliamento
200814/06PEAM13 su- 1 9:31.99Chiuro
200830/08PEAM20 se- 1 9:36.23Trento
200826/04PEAM3 se- 1 9:37.60Piombino Dese
200924/05PEAM1 su- 1 9:40.81Rosa
 

Corsa strada Km 10

Anno Data Tipo Cr. Cat. Piazz. Prestaz. Vento Città  
201809/09SMSM31 su- 1 36:24San Giorgio D.pertiche
201611/09SMSM54 su- 1 38:53San Giorgio Pertiche
 

2000 siepi H91

Anno Data Tipo Cr. Cat. Piazz. Prestaz. Vento Città  
201023/06PEJM4 su- 1 6:09.96Mogliano Veneto
200923/05PEAM2 su- 1 6:22.19Rosa
200919/09PEAM1 su- 1 6:26.04Mogliano Veneto
200920/06PEAM7 su- 1 6:26.76Villafranca Di Verona
200904/10PEAM10 se- 2 6:27.48Grosseto
200902/05PEAM2 su- 1 6:32.87Mestre
 

3000 siepi H91

Anno Data Tipo Cr. Cat. Piazz. Prestaz. Vento Città  
201019/06PEJM8 su- 1 9:40.31Pescara
201007/05PMJM1 se- 1 9:40.4Rovigo
201216/06PEPM14 su- 1 9:44.62Misano Adriatico
201114/05PEJM5 su- 1 9:45.50Marcon
201219/05PEPM5 su- 1 9:47.33Vicenza
201911/05PESM8 su- 1 9:50.81San Biagio Di Callalta
201118/06PEJM10 su- 1 9:51.82Bressanone
201327/04PEPM2 su- 1 9:54.90Arzignano
201012/09PEJM4 su- 1 9:56.57Vedelago
201015/05PEJM7 su- 1 10:01.99Marcon
201311/05PEPM7 su- 1 10:04.71Marcon
201012/06PEJM3 su- 1 10:14.89Padova
 

VORTEX

Anno Data Tipo Cr. Cat. Piazz. Prestaz. Vento Città  
200522/05PRM8 su- 1 36.65Padova
 

Attenzione: le schede-atleti sono composte automaticamente sulla base dei dati inseriti all'interno degli archivi nazionali aggiornati dal 2005 al 15-11-2019. Se un risultato non compare nelle graduatorie, quindi, è segno che lo stesso, con ogni probabilità, non è stato ancora inserito. Il processo di inserimento è di competenza dei Comitati Regionali sul cui territorio ha avuto luogo la manifestazione: eventuali segnalazioni per errori od omissioni, vanno dunque indirizzate agli stessi (potete utilizzare l'elenco con relativi contatti). Considerato però che solo le principali manifestazioni nazionali sono oggetto di inserimenti "in diretta" (sul posto di gara), mentre le altre, incluse le internazionali in programma all'estero, vengono inserite in tempi successivi, è opportuno attendere un ragionevole lasso di tempo prima di procedere ad una segnalazione.

Stickers


Non ventosi

GaraTipoPrestazioneVentoAnnoCittà
400 metriPista 54.972018Treviso
600 METRIPista 1:32.652007Trento
800 metriPista 1:58.022010Padova
800 metriIndoor 2:05.112009Padova
1000 METRIPista 2:35.522019Monaco Montecarlo
1000 METRIIndoor 2:47.672009Padova
1500 metriPista 4:03.372012Ferrara
2000 METRIPista 6:00.162007Mogliano Veneto
3000 metriPista 8:57.082011Noale
Corsa strada Km 10Strada 36:242018San Giorgio D.pertiche
2000 siepi H91Pista 6:09.962010Mogliano Veneto
3000 siepi H91Pista 9:40.312010Pescara
VORTEXPista 36.652005Padova

AnnoTipo mov.CategoriaSocietà
2019RinnovoSeniores MaschileC.U.S. PADOVA
2018RinnovoSeniores MaschileC.U.S. PADOVA
2017RinnovoSeniores MaschileATLETICA CITTA' DI PADOVA
2016RinnovoSeniores MaschileATLETICA CITTA' DI PADOVA
2015RinnovoSeniores MaschileATLETICA CITTA' DI PADOVA
2014RinnovoPromesse MaschileATLETICA CITTA' DI PADOVA
2013RinnovoPromesse MaschileATLETICA CITTA' DI PADOVA
2012RinnovoPromesse MaschileATLETICA CITTA' DI PADOVA
2011RinnovoJuniores MaschileATLETICA CITTA' DI PADOVA
2010TrasferimentoJuniores MaschileATLETICA CITTA' DI PADOVA
2009RinnovoAllieviATLETICA VIS ABANO
2008RinnovoAllieviATLETICA VIS ABANO
2007RinnovoCadettiATLETICA VIS ABANO
2006RinnovoCadettiATLETICA VIS ABANO
2005NuovoRagazzi MaschileATLETICA VIS ABANO